KLM19C LSGG-EHAM

Flight info

Callsign KLM19C
Flight time 1h 34m
Altitude 36000
Route ARBOS DCT PENDU DCT IXILU DCT GIVOR DCT SORAL DCT IBERA DCT BUB Y28 HELEN
Aircraft A21N/M-SDE3FGHIRWY/LB1

Departure

Time 2026-05-04 17:16
Airport Geneva International Airport (LSGG)

Arrival

Time 2026-05-04 18:51
Airport Amsterdam Airport Schiphol (EHAM)
Time Latitude Longitude Altitude Speed Heading
2026-05-04 16:27 46.23103 6.10666 1397 ft 0 kts 135°
2026-05-04 16:28 46.23105 6.10663 1397 ft 0 kts 135°
2026-05-04 17:04 46.23122 6.10634 1405 ft 4 kts 114°
2026-05-04 17:04 46.23111 6.10578 1399 ft 2 kts 45°
2026-05-04 17:05 46.23109 6.10576 1401 ft 0 kts 45°
2026-05-04 17:07 46.23110 6.10576 1401 ft 1 kts 45°
2026-05-04 17:08 46.23139 6.10620 1402 ft 12 kts 46°
2026-05-04 17:08 46.23163 6.10654 1393 ft 0 kts 40°
2026-05-04 17:10 46.23261 6.10780 1398 ft 13 kts 21°
2026-05-04 17:11 46.23353 6.10844 1401 ft 17 kts 41°
2026-05-04 17:11 46.23440 6.10969 1396 ft 15 kts 45°
2026-05-04 17:11 46.23596 6.11162 1395 ft 13 kts 347°
2026-05-04 17:12 46.23674 6.11070 1386 ft 15 kts 336°
2026-05-04 17:12 46.23895 6.11359 1374 ft 27 kts 45°
2026-05-04 17:13 46.24285 6.11932 1362 ft 24 kts 45°
2026-05-04 17:14 46.24643 6.12457 1367 ft 27 kts 44°
2026-05-04 17:14 46.24775 6.12650 1362 ft 25 kts 35°
2026-05-04 17:14 46.24992 6.12692 1371 ft 9 kts 296°
2026-05-04 17:15 46.24983 6.12625 1372 ft 6 kts 235°
2026-05-04 17:15 46.24954 6.12581 1372 ft 2 kts 226°
2026-05-04 17:16 46.24641 6.12121 1372 ft 93 kts 225°
2026-05-04 17:16 46.22511 6.08937 2345 ft 163 kts 226°
2026-05-04 17:17 46.21712 6.07743 2965 ft 171 kts 225°
2026-05-04 17:17 46.18676 6.03359 3974 ft 243 kts 223°
2026-05-04 17:18 46.17441 6.01573 4629 ft 256 kts 223°
2026-05-04 17:18 46.14934 5.97893 6632 ft 257 kts 225°
2026-05-04 17:19 46.13193 5.93406 8372 ft 271 kts 263°
2026-05-04 17:19 46.14459 5.88266 10093 ft 290 kts 313°
2026-05-04 17:20 46.18231 5.86038 11619 ft 308 kts 347°
2026-05-04 17:20 46.22732 5.84906 12337 ft 345 kts 348°
2026-05-04 17:20 46.25111 5.84318 13070 ft 349 kts 348°
2026-05-04 17:21 46.29968 5.83099 14510 ft 358 kts 347°
2026-05-04 17:21 46.34932 5.81825 15788 ft 368 kts 347°
2026-05-04 17:22 46.37466 5.81168 16416 ft 372 kts 346°
2026-05-04 17:22 46.40024 5.80429 17045 ft 375 kts 341°
2026-05-04 17:23 46.47068 5.75404 18818 ft 382 kts 326°
2026-05-04 17:23 46.49375 5.73537 19368 ft 386 kts 326°
2026-05-04 17:23 46.54146 5.69683 20443 ft 395 kts 326°
2026-05-04 17:24 46.56563 5.67731 20987 ft 400 kts 326°
2026-05-04 17:24 46.64423 5.63178 22496 ft 427 kts 354°
2026-05-04 17:25 46.67410 5.63453 23012 ft 435 kts 11°
2026-05-04 17:25 46.72830 5.67377 23980 ft 441 kts 44°
2026-05-04 17:26 46.77333 5.73509 24936 ft 445 kts 45°
2026-05-04 17:26 46.84137 5.82895 26282 ft 452 kts 45°
2026-05-04 17:27 46.88731 5.89236 27134 ft 457 kts 45°
2026-05-04 17:27 46.93396 5.95642 27942 ft 463 kts 42°
2026-05-04 17:28 46.98925 6.00591 28713 ft 471 kts 22°
2026-05-04 17:29 47.08649 6.02812 29759 ft 478 kts 359°
2026-05-04 17:29 47.18712 6.02972 30687 ft 485 kts 359°
2026-05-04 17:30 47.28887 6.03155 31562 ft 489 kts 359°
2026-05-04 17:31 47.35676 6.03275 32360 ft 486 kts 359°
2026-05-04 17:31 47.45767 6.03498 33551 ft 482 kts 358°
2026-05-04 17:32 47.52461 6.03660 34284 ft 479 kts 358°
2026-05-04 17:33 47.62419 6.03880 35294 ft 475 kts 358°
2026-05-04 17:33 47.65683 6.03948 35613 ft 474 kts 358°
2026-05-04 17:34 47.75509 6.04715 36009 ft 469 kts 10°
2026-05-04 17:34 47.78689 6.05865 36008 ft 469 kts 12°
2026-05-04 17:35 47.94502 6.11829 36022 ft 469 kts 12°
2026-05-04 17:36 48.00785 6.14189 36018 ft 469 kts 12°
2026-05-04 17:36 48.06076 6.16193 36020 ft 469 kts 12°
2026-05-04 17:37 48.12398 6.18606 36007 ft 469 kts 12°
2026-05-04 17:37 48.18726 6.21011 36006 ft 469 kts 12°
2026-05-04 17:38 48.25056 6.23423 36010 ft 469 kts 12°
2026-05-04 17:38 48.31388 6.25843 36011 ft 470 kts 13°
2026-05-04 17:39 48.40887 6.29476 36009 ft 470 kts 13°
2026-05-04 17:39 48.47230 6.31922 36003 ft 470 kts 13°
2026-05-04 17:40 48.53576 6.34382 36010 ft 470 kts 13°
2026-05-04 17:40 48.59875 6.36815 36007 ft 470 kts 13°
2026-05-04 17:41 48.66242 6.39081 36010 ft 469 kts
2026-05-04 17:41 48.72727 6.39826 36004 ft 467 kts
2026-05-04 17:42 48.79261 6.40483 36004 ft 467 kts
2026-05-04 17:42 48.85711 6.41138 36005 ft 467 kts
2026-05-04 17:43 48.92203 6.41809 36018 ft 468 kts
2026-05-04 17:43 48.98698 6.42476 36006 ft 468 kts
2026-05-04 17:44 49.05203 6.43147 36010 ft 468 kts
2026-05-04 17:44 49.11679 6.43259 36011 ft 464 kts 349°
2026-05-04 17:45 49.17921 6.41084 36003 ft 459 kts 341°
2026-05-04 17:45 49.24098 6.38537 36006 ft 460 kts 341°
2026-05-04 17:46 49.30290 6.35990 36000 ft 460 kts 341°
2026-05-04 17:46 49.36478 6.33449 35994 ft 460 kts 341°
2026-05-04 17:47 49.42666 6.30892 35992 ft 460 kts 341°
2026-05-04 17:47 49.48814 6.28156 35986 ft 457 kts 334°
2026-05-04 17:48 49.54262 6.23404 35997 ft 446 kts 316°
2026-05-04 17:48 49.59142 6.17504 35990 ft 446 kts 317°
2026-05-04 17:49 49.64038 6.11611 35985 ft 446 kts 317°
2026-05-04 17:49 49.68936 6.05712 35985 ft 447 kts 317°
2026-05-04 17:50 49.73824 5.99784 35993 ft 447 kts 317°
2026-05-04 17:50 49.78708 5.93824 35995 ft 447 kts 317°
2026-05-04 17:51 49.83592 5.87873 36031 ft 447 kts 317°
2026-05-04 17:51 49.88452 5.81951 36026 ft 447 kts 317°
2026-05-04 17:52 49.93357 5.75940 36021 ft 447 kts 316°
2026-05-04 17:52 49.98204 5.69972 36017 ft 446 kts 316°
2026-05-04 17:53 50.03070 5.63966 36009 ft 447 kts 316°
2026-05-04 17:53 50.07941 5.57963 36013 ft 447 kts 317°
2026-05-04 17:54 50.12809 5.51950 36017 ft 446 kts 316°
2026-05-04 17:54 50.17656 5.45917 36030 ft 446 kts 316°
2026-05-04 17:55 50.22515 5.39861 36021 ft 446 kts 316°
2026-05-04 17:55 50.27374 5.33799 36010 ft 446 kts 316°
2026-05-04 17:56 50.32221 5.27732 36014 ft 446 kts 316°
2026-05-04 17:56 50.37066 5.21651 36012 ft 446 kts 316°
2026-05-04 17:57 50.41910 5.15566 36009 ft 446 kts 316°
2026-05-04 17:57 50.46743 5.09456 36028 ft 446 kts 317°
2026-05-04 17:58 50.50752 5.04381 36025 ft 446 kts 317°
2026-05-04 17:58 50.55583 4.98269 36017 ft 446 kts 317°
2026-05-04 17:59 50.60407 4.92131 36011 ft 445 kts 317°
2026-05-04 18:00 50.67626 4.82912 36004 ft 445 kts 317°
2026-05-04 18:00 50.72437 4.76743 36004 ft 445 kts 317°
2026-05-04 18:01 50.77233 4.70587 36005 ft 445 kts 316°
2026-05-04 18:01 50.82010 4.64429 35977 ft 447 kts 317°
2026-05-04 18:02 50.89199 4.54958 35961 ft 447 kts 310°
2026-05-04 18:02 50.92834 4.47130 35961 ft 440 kts 297°
2026-05-04 18:03 50.96023 4.38836 35963 ft 441 kts 297°
2026-05-04 18:03 50.99227 4.30507 35973 ft 441 kts 297°
2026-05-04 18:04 51.02429 4.22160 35979 ft 442 kts 297°
2026-05-04 18:05 51.07222 4.09647 35992 ft 442 kts 297°
2026-05-04 18:05 51.10961 4.01923 35990 ft 450 kts 316°
2026-05-04 18:06 51.18504 3.92918 35986 ft 452 kts 320°
2026-05-04 18:06 51.23934 3.87839 35984 ft 460 kts 341°
2026-05-04 18:07 51.27083 3.86896 35987 ft 463 kts 355°
2026-05-04 18:07 51.30310 3.86772 35986 ft 464 kts 357°
2026-05-04 18:07 51.36778 3.86634 35978 ft 465 kts 357°
2026-05-04 18:08 51.43258 3.86507 35989 ft 466 kts 357°
2026-05-04 18:08 51.49735 3.86360 35991 ft 466 kts 357°
2026-05-04 18:09 51.62703 3.86038 36025 ft 466 kts 357°
2026-05-04 18:10 51.69186 3.85929 36026 ft 465 kts
2026-05-04 18:10 51.72344 3.87000 36015 ft 466 kts 23°
2026-05-04 18:10 51.75086 3.89725 35996 ft 464 kts 40°
2026-05-04 18:11 51.79962 3.96598 35977 ft 466 kts 43°
2026-05-04 18:11 51.84742 4.03694 35970 ft 467 kts 43°
2026-05-04 18:12 51.89556 4.10790 35969 ft 469 kts 43°
2026-05-04 18:12 51.94413 4.17849 35972 ft 469 kts 43°
2026-05-04 18:13 51.99279 4.24915 35978 ft 470 kts 42°
2026-05-04 18:14 52.06532 4.35527 36005 ft 470 kts 43°
2026-05-04 18:14 52.11381 4.42669 36007 ft 470 kts 43°
2026-05-04 18:15 52.21084 4.57001 36022 ft 470 kts 43°
2026-05-04 18:15 52.23490 4.60570 35750 ft 466 kts 43°
2026-05-04 18:16 52.25980 4.63910 35331 ft 461 kts 31°
2026-05-04 18:16 52.28863 4.66068 34901 ft 454 kts 13°
2026-05-04 18:16 52.31940 4.66937 34433 ft 448 kts
2026-05-04 18:17 52.38117 4.67940 33444 ft 444 kts
2026-05-04 18:17 52.41181 4.68407 32958 ft 441 kts
2026-05-04 18:17 52.47254 4.69325 32029 ft 436 kts
2026-05-04 18:18 52.50264 4.69783 31575 ft 433 kts
2026-05-04 18:18 52.53266 4.70228 31124 ft 431 kts
2026-05-04 18:18 52.56249 4.70656 30681 ft 429 kts
2026-05-04 18:18 52.59219 4.71068 30248 ft 427 kts
2026-05-04 18:19 52.64960 4.69976 29366 ft 408 kts 330°
2026-05-04 18:19 52.67277 4.67452 28947 ft 393 kts 310°
2026-05-04 18:19 52.68863 4.63964 28730 ft 370 kts 289°
2026-05-04 18:20 52.69554 4.60057 28588 ft 346 kts 269°
2026-05-04 18:20 52.69330 4.56258 28447 ft 324 kts 248°
2026-05-04 18:20 52.68522 4.52874 28309 ft 312 kts 243°
2026-05-04 18:20 52.67666 4.49705 28130 ft 303 kts 243°
2026-05-04 18:21 52.66806 4.46554 27762 ft 300 kts 243°
2026-05-04 18:21 52.65941 4.43425 27384 ft 298 kts 243°
2026-05-04 18:21 52.65354 4.41331 27144 ft 297 kts 243°
2026-05-04 18:21 52.64408 4.38331 26787 ft 293 kts 231°
2026-05-04 18:22 52.62910 4.36153 26416 ft 289 kts 208°
2026-05-04 18:22 52.60978 4.35199 25650 ft 296 kts 187°
2026-05-04 18:22 52.58899 4.35109 24917 ft 301 kts 183°
2026-05-04 18:22 52.56803 4.35170 24281 ft 301 kts 183°
2026-05-04 18:23 52.54712 4.35261 23695 ft 300 kts 182°
2026-05-04 18:23 52.52625 4.35365 23060 ft 298 kts 182°
2026-05-04 18:23 52.50562 4.35462 22475 ft 295 kts 182°
2026-05-04 18:23 52.48526 4.35548 21913 ft 291 kts 182°
2026-05-04 18:24 52.46541 4.35621 21367 ft 287 kts 182°
2026-05-04 18:24 52.44548 4.35682 20831 ft 284 kts 182°
2026-05-04 18:24 52.42585 4.35717 20281 ft 282 kts 182°
2026-05-04 18:24 52.40632 4.35735 19770 ft 279 kts 182°
2026-05-04 18:25 52.38699 4.35749 19263 ft 276 kts 182°
2026-05-04 18:25 52.36786 4.35751 18782 ft 273 kts 182°
2026-05-04 18:25 52.34900 4.35771 18328 ft 269 kts 182°
2026-05-04 18:25 52.33030 4.35787 17782 ft 267 kts 182°
2026-05-04 18:26 52.31176 4.35794 17218 ft 266 kts 182°
2026-05-04 18:26 52.29330 4.35781 16674 ft 265 kts 183°
2026-05-04 18:26 52.27498 4.35793 16160 ft 263 kts 182°
2026-05-04 18:26 52.25670 4.35769 15652 ft 261 kts 186°
2026-05-04 18:27 52.23955 4.35045 15154 ft 253 kts 213°
2026-05-04 18:27 52.22710 4.33110 14657 ft 246 kts 237°
2026-05-04 18:27 52.21810 4.30720 14123 ft 248 kts 242°
2026-05-04 18:27 52.20961 4.28288 13657 ft 245 kts 243°
2026-05-04 18:28 52.20123 4.25866 13086 ft 246 kts 242°
2026-05-04 18:28 52.19299 4.23411 12527 ft 247 kts 243°
2026-05-04 18:28 52.18484 4.20951 12016 ft 246 kts 242°
2026-05-04 18:28 52.17684 4.18505 11527 ft 244 kts 243°
2026-05-04 18:29 52.16891 4.16079 11047 ft 241 kts 242°
2026-05-04 18:29 52.16110 4.13670 10568 ft 239 kts 242°
2026-05-04 18:29 52.15337 4.11275 10082 ft 237 kts 242°
2026-05-04 18:29 52.14577 4.08904 9565 ft 236 kts 243°
2026-05-04 18:30 52.13071 4.04206 8499 ft 233 kts 243°
2026-05-04 18:30 52.12320 4.01874 7973 ft 231 kts 243°
2026-05-04 18:30 52.11571 3.99562 7477 ft 229 kts 242°
2026-05-04 18:31 52.10721 3.97415 7116 ft 229 kts 225°
2026-05-04 18:31 52.09395 3.96032 6809 ft 228 kts 198°
2026-05-04 18:31 52.07806 3.95825 6312 ft 237 kts 167°
2026-05-04 18:31 52.06282 3.97054 6147 ft 252 kts 137°
2026-05-04 18:32 52.05333 3.99351 6012 ft 244 kts 106°
2026-05-04 18:32 52.05229 4.02024 5884 ft 241 kts 76°
2026-05-04 18:32 52.05864 4.04521 5755 ft 240 kts 62°
2026-05-04 18:32 52.06624 4.06937 5629 ft 240 kts 61°
2026-05-04 18:33 52.07385 4.09354 5495 ft 239 kts 62°
2026-05-04 18:33 52.08139 4.11761 5373 ft 239 kts 62°
2026-05-04 18:33 52.08889 4.14165 5239 ft 238 kts 62°
2026-05-04 18:33 52.09637 4.16572 5115 ft 237 kts 62°
2026-05-04 18:34 52.10379 4.18963 4988 ft 236 kts 62°
2026-05-04 18:34 52.11118 4.21347 4865 ft 236 kts 62°
2026-05-04 18:34 52.11856 4.23729 4743 ft 235 kts 62°
2026-05-04 18:34 52.12588 4.26099 4610 ft 234 kts 63°
2026-05-04 18:35 52.13318 4.28459 4484 ft 234 kts 62°
2026-05-04 18:35 52.14045 4.30815 4348 ft 233 kts 62°
2026-05-04 18:35 52.14772 4.33169 4223 ft 232 kts 63°
2026-05-04 18:35 52.15494 4.35514 4094 ft 231 kts 63°
2026-05-04 18:36 52.16214 4.37853 3966 ft 230 kts 62°
2026-05-04 18:36 52.16929 4.40180 3841 ft 229 kts 62°
2026-05-04 18:36 52.17639 4.42500 3710 ft 229 kts 62°
2026-05-04 18:36 52.18347 4.44814 3587 ft 228 kts 62°
2026-05-04 18:37 52.19047 4.47102 3461 ft 227 kts 62°
2026-05-04 18:37 52.19770 4.49467 3275 ft 226 kts 62°
2026-05-04 18:37 52.20471 4.51755 3075 ft 228 kts 61°
2026-05-04 18:37 52.21287 4.53954 2794 ft 226 kts 56°
2026-05-04 18:38 52.22126 4.56104 2487 ft 224 kts 56°
2026-05-04 18:38 52.22965 4.58272 2178 ft 222 kts 57°
2026-05-04 18:38 52.23773 4.60370 2018 ft 210 kts 56°
2026-05-04 18:38 52.24500 4.62265 2000 ft 185 kts 55°
2026-05-04 18:39 52.25161 4.63994 2022 ft 166 kts 56°
2026-05-04 18:39 52.25561 4.65034 2023 ft 162 kts 56°
2026-05-04 18:39 52.26175 4.66643 2016 ft 164 kts 56°
2026-05-04 18:39 52.26747 4.68253 2007 ft 167 kts 57°
2026-05-04 18:40 52.27334 4.69923 2008 ft 174 kts 59°
2026-05-04 18:40 52.27937 4.71632 2005 ft 176 kts 58°
2026-05-04 18:40 52.28568 4.73394 2009 ft 177 kts 56°
2026-05-04 18:40 52.29177 4.75106 2010 ft 176 kts 58°
2026-05-04 18:41 52.29827 4.76932 2007 ft 177 kts 57°
2026-05-04 18:41 52.30686 4.78252 2010 ft 175 kts 21°
2026-05-04 18:41 52.31882 4.78284 2009 ft 177 kts 341°
2026-05-04 18:41 52.32975 4.77288 2007 ft 179 kts 328°
2026-05-04 18:42 52.34009 4.76146 2012 ft 179 kts 329°
2026-05-04 18:42 52.35008 4.74959 2008 ft 178 kts 324°
2026-05-04 18:42 52.35651 4.73250 2008 ft 186 kts 284°
2026-05-04 18:42 52.35351 4.70773 2015 ft 197 kts 245°
2026-05-04 18:43 52.34756 4.69172 2007 ft 198 kts 239°
2026-05-04 18:43 52.34004 4.67311 2009 ft 194 kts 237°
2026-05-04 18:43 52.33241 4.65452 2012 ft 198 kts 236°
2026-05-04 18:43 52.32480 4.63618 2011 ft 196 kts 237°
2026-05-04 18:44 52.31723 4.61765 2013 ft 195 kts 238°
2026-05-04 18:44 52.31215 4.60513 2008 ft 195 kts 239°
2026-05-04 18:44 52.30194 4.58056 2005 ft 197 kts 238°
2026-05-04 18:44 52.29424 4.56215 2014 ft 195 kts 237°
2026-05-04 18:45 52.28651 4.54372 2010 ft 198 kts 238°
2026-05-04 18:45 52.27864 4.52574 2006 ft 198 kts 230°
2026-05-04 18:45 52.26709 4.51364 2014 ft 199 kts 196°
2026-05-04 18:45 52.25352 4.51303 2016 ft 197 kts 171°
2026-05-04 18:46 52.24004 4.51576 2012 ft 195 kts 171°
2026-05-04 18:46 52.22645 4.51856 2007 ft 197 kts 167°
2026-05-04 18:46 52.21434 4.52772 2015 ft 192 kts 139°
2026-05-04 18:46 52.20425 4.54201 2011 ft 188 kts 131°
2026-05-04 18:47 52.19740 4.55939 2043 ft 176 kts 95°
2026-05-04 18:47 52.19967 4.57681 2053 ft 150 kts 49°
2026-05-04 18:47 52.20780 4.58669 2035 ft 145 kts 30°
2026-05-04 18:47 52.21658 4.59478 1988 ft 146 kts 27°
2026-05-04 18:48 52.22548 4.60221 1978 ft 143 kts 26°
2026-05-04 18:48 52.23407 4.61052 1918 ft 141 kts 35°
2026-05-04 18:48 52.24160 4.62085 1678 ft 144 kts 45°
2026-05-04 18:48 52.24788 4.63348 1449 ft 140 kts 50°
2026-05-04 18:49 52.25373 4.64602 1281 ft 138 kts 51°
2026-05-04 18:49 52.25927 4.65889 1147 ft 139 kts 54°
2026-05-04 18:49 52.26408 4.67231 1023 ft 138 kts 57°
2026-05-04 18:49 52.26918 4.68578 837 ft 137 kts 53°
2026-05-04 18:50 52.27449 4.69836 582 ft 133 kts 53°
2026-05-04 18:50 52.27915 4.71117 407 ft 128 kts 55°
2026-05-04 18:50 52.28243 4.71968 298 ft 130 kts 53°
2026-05-04 18:50 52.28733 4.73273 105 ft 129 kts 53°
2026-05-04 18:51 52.29211 4.74502 2 ft 114 kts 58°
2026-05-04 18:51 52.29508 4.75284 -2 ft 73 kts 58°
2026-05-04 18:51 52.29728 4.75853 -2 ft 44 kts 56°
2026-05-04 18:51 52.29891 4.76279 -3 ft 42 kts 58°
2026-05-04 18:52 52.30065 4.76570 -2 ft 31 kts 28°
2026-05-04 18:52 52.30197 4.76686 -1 ft 15 kts 28°
2026-05-04 18:52 52.30273 4.76744 -1 ft 8 kts 14°
2026-05-04 18:52 52.30337 4.76717 -1 ft 8 kts 328°
2026-05-04 18:53 52.30354 4.76614 -1 ft 10 kts 288°
2026-05-04 18:53 52.30418 4.76529 -1 ft 14 kts 329°
2026-05-04 18:53 52.30435 4.76513 -1 ft 0 kts 333°
2026-05-04 18:53 52.30449 4.76519 -1 ft 3 kts 30°
2026-05-04 18:54 52.30455 4.76538 -1 ft 3 kts 58°
2026-05-04 18:54 52.30460 4.76552 -1 ft 0 kts 57°
2026-05-04 18:54 52.30463 4.76559 -1 ft 2 kts 56°
2026-05-04 18:54 52.30469 4.76574 -1 ft 0 kts 58°